Waarnemingen

Advertentie
Mijn weer
St-Girons, Frankrijk (7627): temperatuur & dauwpunt: 19.09.2017 06:00:00 - 25.09.2017 06:00:00 (CEST)St-Girons, Frankrijk (7627): temperatuur 5cm: 19.09.2017 06:00:00 - 25.09.2017 06:00:00 (CEST)St-Girons, Frankrijk (7627): temperatuur -20cm & temperatuur -100cm: 19.09.2017 06:00:00 - 25.09.2017 06:00:00 (CEST)St-Girons, Frankrijk (7627): windsnelheid & windstoten: 19.09.2017 06:00:00 - 25.09.2017 06:00:00 (CEST)St-Girons, Frankrijk (7627): windrichting: 19.09.2017 06:00:00 - 25.09.2017 06:00:00 (CEST)St-Girons, Frankrijk (7627): luchtdruk: 19.09.2017 06:00:00 - 25.09.2017 06:00:00 (CEST)St-Girons, Frankrijk (7627): zicht: 19.09.2017 06:00:00 - 25.09.2017 06:00:00 (CEST)St-Girons, Frankrijk (7627): Zonneschijnduur: 19.09.2017 06:00:00 - 25.09.2017 06:00:00 (CEST)St-Girons, Frankrijk (7627): neerslag: 19.09.2017 06:00:00 - 25.09.2017 06:00:00 (CEST)
Datum & Tijd tt [°C] td [°C] tt 5cm [°C] tt -20cm [°C] tt -100cm [°C] ff [km/u] ff [kn] fx [km/u] fx [kn] dd ppp [hPa] vv [km] sd [min] rr [mm]
25.09.2017 06:00:00 17,6 15,0 14,7 18,1 17,7 16 9 43 23 WNW 1019,4 20 0 0,0
25.09.2017 05:00:00 15,9 14,1 12,0 18,1 17,7 9 5 23 12 WNW 1019,0 19 0 0,0
25.09.2017 04:00:00 14,0 10,8 11,4 18,2 17,7 19 11 45 24 WZW 1018,9 20 0 0,0
25.09.2017 03:00:00 16,4 10,7 12,0 18,2 17,7 19 11 32 18 ZO 1017,7 20 0 0,0
25.09.2017 02:00:00 15,8 11,6 11,1 18,3 17,7 13 7 22 12 ZZO 1018,1 20 0 0,0
25.09.2017 01:00:00 14,3 11,4 11,7 18,3 17,7 2 1 29 16 WZW 1018,7 20 0 0,0
25.09.2017 00:00:00 17,3 11,8 16,2 18,4 17,7 16 9 32 18 ZO 1018,4 20 0 0,0
24.09.2017 23:00:00 17,7 12,4 15,7 18,3 17,7 21 11 30 16 ZO 1018,5 20 0 0,0
24.09.2017 22:00:00 17,1 13,0 13,2 18,3 17,7 11 6 19 10 ZZO 1018,8 20 0 0,0
24.09.2017 21:00:00 17,5 13,2 13,4 18,2 17,7 8 4 12 6 ZO 1018,6 16 0 0,0
24.09.2017 20:00:00 17,9 12,6 15,0 18,1 17,7 7 4 11 6 ZO 1018,3 20 14 0,0
24.09.2017 19:00:00 24,2 12,8 25,5 18,0 17,7 4 2 12 6 Z 1017,2 20 57 0,0
24.09.2017 18:00:00 26,3 10,8 29,5 17,8 17,7 8 4 18 10 OZO 1017,0 20 60 0,0
24.09.2017 17:00:00 26,9 11,4 31,8 17,6 17,7 6 4 16 9 ZO 1016,9 20 60 0,0
24.09.2017 16:00:00 28,0 11,1 34,4 17,5 17,7 3 2 12 6 OZO 1017,1 20 60 0,0
24.09.2017 15:00:00 27,1 11,6 - - - 5 3 13 7 NO 1017,7 20 - 0,0
24.09.2017 14:00:00 26,5 12,5 33,5 17,2 17,7 3 2 11 6 NO 1018,2 20 60 0,0
24.09.2017 13:00:00 25,2 12,1 33,1 17,2 17,7 4 2 8 5 OZO 1018,8 20 60 0,0
24.09.2017 12:00:00 23,6 12,6 28,3 17,2 17,7 3 1 12 6 O 1019,4 20 60 0,0
24.09.2017 11:00:00 21,4 12,8 24,9 17,3 17,7 6 3 14 8 ZO 1019,8 20 60 0,0
24.09.2017 10:00:00 17,0 13,1 15,5 17,4 17,7 0 0 5 3 N 1020,4 20 60 0,0
24.09.2017 09:00:00 12,1 11,6 7,7 17,4 17,7 2 1 5 3 WNW 1021,1 20 48 0,2
24.09.2017 08:00:00 9,6 9,0 6,5 17,6 17,7 0 0 6 4 N 1021,6 19 0 0,0
24.09.2017 07:00:00 9,7 9,2 7,0 17,7 17,7 2 1 11 6 W 1021,2 19 0 0,0
24.09.2017 06:00:00 9,9 9,4 6,7 17,8 17,7 2 1 5 3 WZW 1021,2 16 0 0,0
24.09.2017 05:00:00 9,7 8,9 7,1 17,8 17,7 3 2 5 3 W 1021,4 17 0 0,0
24.09.2017 04:00:00 10,2 9,6 7,1 17,9 17,7 3 1 5 3 W 1021,2 18 0 0,0
24.09.2017 03:00:00 10,9 9,8 7,6 18,0 17,7 0 0 5 3 N 1021,1 20 0 0,0
24.09.2017 02:00:00 10,8 9,7 8,3 18,0 17,7 4 2 7 4 W 1020,9 19 0 0,0
24.09.2017 01:00:00 13,4 11,1 10,1 18,0 17,7 3 2 26 14 W 1020,5 20 0 0,0
24.09.2017 00:00:00 16,0 11,2 14,3 18,0 17,7 20 11 31 17 ZZO 1019,7 20 0 0,0
23.09.2017 23:00:00 16,8 11,7 15,4 18,0 17,7 14 8 21 12 ZO 1019,6 20 0 0,0
23.09.2017 22:00:00 16,9 12,2 15,1 18,0 17,7 12 7 23 12 ZO 1019,5 20 0 0,0
23.09.2017 21:00:00 16,8 13,1 13,0 17,9 17,7 7 4 12 7 ZZO 1019,3 20 0 0,0
23.09.2017 20:00:00 17,7 13,4 15,1 17,8 17,7 7 4 10 5 ZZO 1018,4 20 30 0,0
23.09.2017 19:00:00 21,0 14,2 20,8 17,6 17,8 3 1 10 5 ZZW 1017,8 20 20 0,0
23.09.2017 18:00:00 24,6 11,5 28,5 17,4 17,7 5 3 13 7 O 1017,0 20 57 0,0
23.09.2017 17:00:00 25,1 12,0 30,7 17,3 17,7 8 4 16 9 OZO 1017,1 20 60 0,0
23.09.2017 16:00:00 25,5 13,4 32,7 17,1 17,7 6 3 14 8 NO 1017,3 20 60 0,0
23.09.2017 15:00:00 25,2 12,4 31,2 17,0 17,7 5 3 13 7 NNW 1017,6 20 60 0,0
23.09.2017 14:00:00 24,7 12,6 30,2 17,0 17,7 3 2 13 7 NNW 1017,9 20 60 0,0
23.09.2017 13:00:00 22,5 12,4 28,1 16,9 17,7 7 4 14 7 OZO 1018,6 20 60 0,0
23.09.2017 12:00:00 20,6 12,6 24,6 16,9 17,7 6 4 16 8 OZO 1019,4 20 60 0,0
23.09.2017 11:00:00 17,9 11,9 20,6 17,0 17,8 11 6 20 11 OZO 1020,2 20 60 0,0
23.09.2017 10:00:00 15,7 11,5 17,1 17,1 17,8 8 4 17 9 OZO 1020,7 20 60 0,0
23.09.2017 09:00:00 12,7 10,6 10,9 17,1 17,8 0 0 20 11 N 1021,4 20 51 0,0
23.09.2017 08:00:00 12,0 9,9 10,9 17,1 17,8 13 7 22 12 ZO 1021,4 20 0 0,0
23.09.2017 07:00:00 12,6 10,1 11,1 17,2 17,8 16 9 27 14 ZO 1021,2 20 0 0,0
23.09.2017 06:00:00 12,0 10,6 10,8 17,3 17,8 11 6 23 12 ZZO 1021,6 20 0 0,0
23.09.2017 05:00:00 12,6 11,3 8,6 17,3 17,8 14 8 20 11 ZZO 1021,6 20 0 0,0
23.09.2017 04:00:00 11,7 11,4 7,7 17,4 17,8 4 2 10 5 ZO 1022,4 20 0 0,0
23.09.2017 03:00:00 11,6 10,8 8,3 17,4 17,8 0 0 4 2 N 1023,1 3,0 0 0,0
23.09.2017 02:00:00 12,7 11,6 10,2 17,4 17,8 4 2 21 11 W 1023,0 17 0 0,0
23.09.2017 01:00:00 13,9 12,5 13,1 17,4 17,8 12 6 18 10 ZZO 1022,6 20 0 0,0
23.09.2017 00:00:00 14,2 13,1 12,5 17,5 17,8 7 4 11 6 ZO 1022,9 20 0 0,0
22.09.2017 23:00:00 14,5 13,4 13,2 17,4 17,8 5 3 9 5 ZZO 1023,1 20 0 0,0
22.09.2017 22:00:00 14,2 13,1 13,1 17,4 17,8 5 3 9 5 Z 1022,9 20 0 0,0
22.09.2017 21:00:00 14,8 13,2 14,0 17,4 17,8 2 1 9 5 Z 1022,5 20 0 0,0
22.09.2017 20:00:00 15,4 13,4 14,6 17,3 17,8 3 2 5 3 ZZO 1022,2 20 0 0,0
22.09.2017 19:00:00 16,9 12,6 16,6 17,3 17,8 0 0 8 5 N 1022,0 20 0 0,0
22.09.2017 18:00:00 17,4 12,5 17,2 17,2 17,8 6 4 11 6 W 1021,7 20 0 0,0
22.09.2017 17:00:00 17,9 12,1 18,1 17,2 17,8 4 2 10 5 W 1021,7 20 0 0,0
22.09.2017 16:00:00 17,9 12,3 17,9 17,1 17,8 8 4 15 8 WNW 1021,8 20 0 0,0
22.09.2017 15:00:00 18,9 11,5 20,1 17,0 17,8 9 5 13 7 W 1021,3 20 0 0,0
22.09.2017 14:00:00 20,0 9,8 23,5 16,9 17,8 2 1 9 5 N 1021,2 19 9 0,0
22.09.2017 13:00:00 19,7 10,1 21,6 17,0 17,8 6 3 13 7 N 1021,4 20 41 0,0
22.09.2017 12:00:00 17,8 10,9 21,0 16,9 17,8 9 5 14 8 WNW 1022,1 20 28 0,0
22.09.2017 11:00:00 16,9 12,4 17,1 17,0 17,8 7 4 13 7 NW 1022,0 20 56 0,0
22.09.2017 10:00:00 14,3 12,0 14,2 17,1 17,8 4 2 10 5 OZO 1022,2 20 10 0,0
22.09.2017 09:00:00 11,6 11,3 6,9 17,1 17,8 2 1 5 3 NNO 1022,7 20 31 0,0
22.09.2017 08:00:00 9,0 8,4 6,7 17,2 17,8 0 0 8 4 N 1022,9 6 0 0,0
22.09.2017 07:00:00 10,3 9,2 8,0 17,3 17,8 3 2 8 4 ZO 1022,5 20 0 0,0
22.09.2017 06:00:00 9,9 9,3 8,1 17,3 17,8 2 1 6 3 ZZO 1022,6 20 0 0,0
22.09.2017 05:00:00 10,4 9,8 8,6 17,4 17,8 0 0 4 2 N 1022,4 17 0 0,0
22.09.2017 04:00:00 9,6 8,7 7,4 17,5 17,8 3 1 10 6 NO 1022,4 20 0 0,0
22.09.2017 03:00:00 9,9 9,3 7,0 17,6 17,8 0 0 9 5 N 1022,5 19 0 0,0
22.09.2017 02:00:00 10,0 9,2 6,9 17,6 17,9 7 4 9 5 ZZO 1022,2 20 0 0,0
22.09.2017 01:00:00 10,6 9,7 7,1 17,7 17,9 0 0 7 4 N 1022,0 20 0 0,0
22.09.2017 00:00:00 11,1 9,8 8,1 17,7 17,9 0 0 8 4 N 1021,7 20 0 0,0
21.09.2017 23:00:00 11,3 9,9 8,4 17,7 17,9 3 1 6 3 WNW 1021,3 20 0 0,0
21.09.2017 22:00:00 13,3 10,5 9,6 17,6 17,8 0 0 7 4 N 1020,7 20 0 0,0
21.09.2017 21:00:00 14,6 10,2 11,0 17,5 17,8 3 1 6 3 Z 1019,6 20 0 0,0
21.09.2017 20:00:00 17,8 10,2 14,2 17,4 17,9 4 2 8 4 ZO 1018,1 20 18 0,0
21.09.2017 19:00:00 19,9 11,4 19,0 17,2 17,9 6 4 11 6 W 1016,9 20 26 0,0
21.09.2017 18:00:00 24,3 8,3 23,8 17,1 17,9 7 4 18 10 NW 1015,8 15 41 0,0
21.09.2017 17:00:00 25,0 7,6 29,4 16,9 17,9 10 5 16 9 NW 1015,3 17 60 0,0
21.09.2017 16:00:00 25,7 9,5 30,8 16,8 17,9 4 2 18 10 NNW 1015,3 7 60 0,0
21.09.2017 15:00:00 25,0 6,2 31,1 16,6 17,9 7 4 19 11 N 1015,6 20 60 0,0
21.09.2017 14:00:00 24,8 6,0 30,9 16,5 17,9 11 6 20 11 NNW 1015,7 20 60 0,0
21.09.2017 13:00:00 24,1 6,8 31,3 16,5 17,9 6 3 14 7 NNW 1016,0 20 60 0,0
21.09.2017 12:00:00 22,1 10,9 26,2 16,5 17,9 2 1 11 6 OZO 1016,6 20 60 0,0
21.09.2017 11:00:00 19,0 10,0 22,4 16,6 17,9 5 3 13 7 OZO 1017,1 20 60 0,0
21.09.2017 10:00:00 15,4 11,0 15,8 16,8 17,9 0 0 4 2 N 1017,7 20 60 0,0
21.09.2017 09:00:00 9,6 9,0 5,1 16,8 17,9 3 2 5 3 W 1018,4 20 58 0,0
21.09.2017 08:00:00 6,7 6,4 3,0 17,0 17,9 3 2 6 3 W 1018,8 20 0 0,0
21.09.2017 07:00:00 5,9 5,5 3,2 17,0 17,9 2 1 6 4 ZZW 1018,7 20 0 0,0
21.09.2017 06:00:00 6,0 5,3 3,7 17,1 17,9 3 2 10 5 W 1018,8 20 0 0,0
21.09.2017 05:00:00 6,8 4,9 4,6 17,2 17,9 3 1 16 8 ZZW 1018,9 20 0 0,0
21.09.2017 04:00:00 7,7 6,0 5,2 17,2 17,9 5 3 20 11 Z 1019,2 20 0 0,0
21.09.2017 03:00:00 10,5 7,2 9,4 17,3 17,9 12 7 26 14 OZO 1018,8 20 0 0,0
21.09.2017 02:00:00 10,7 7,8 9,6 17,4 17,9 16 8 25 14 ZO 1019,2 20 0 0,0
21.09.2017 01:00:00 11,4 8,4 9,7 17,3 17,9 17 9 25 13 ZO 1019,1 20 0 0,0
21.09.2017 00:00:00 11,3 8,7 10,1 17,4 18,0 16 9 26 14 ZO 1019,5 20 0 0,0
20.09.2017 23:00:00 11,8 8,8 10,5 17,4 18,0 12 7 26 14 ZO 1019,8 20 0 0,0
20.09.2017 22:00:00 12,1 8,9 8,5 17,4 18,0 11 6 18 10 ZO 1020,1 20 0 0,0
20.09.2017 21:00:00 11,3 8,5 8,0 17,3 18,0 3 2 10 5 ZO 1020,3 20 0 0,0
20.09.2017 20:00:00 12,5 8,6 10,7 17,2 18,0 5 3 8 4 WZW 1020,1 20 20 0,0
20.09.2017 19:00:00 18,9 9,9 21,6 17,0 18,0 4 2 8 4 W 1019,1 20 60 0,0
20.09.2017 18:00:00 20,4 6,3 25,7 16,9 18,0 4 2 13 7 NW 1018,9 20 60 0,0
20.09.2017 17:00:00 19,9 5,9 26,4 16,7 18,0 7 4 16 9 N 1019,2 20 60 0,0
20.09.2017 16:00:00 20,4 7,0 28,2 16,5 18,0 5 3 12 7 N 1019,4 20 60 0,0
20.09.2017 15:00:00 19,3 5,4 27,1 16,4 18,0 8 5 16 9 NNW 1020,2 20 60 0,0
20.09.2017 14:00:00 19,0 5,4 26,9 16,4 18,0 8 4 17 9 NNO 1020,8 20 60 0,0
20.09.2017 13:00:00 18,0 7,1 25,8 16,4 18,0 7 4 15 8 N 1021,4 20 60 0,0
20.09.2017 12:00:00 16,7 7,6 22,9 16,4 18,0 4 2 13 7 OZO 1022,3 20 60 0,0
20.09.2017 11:00:00 15,3 8,1 18,3 16,5 18,0 6 3 14 7 ZO 1023,0 20 60 0,0
20.09.2017 10:00:00 12,7 7,8 13,3 16,6 18,0 8 4 16 8 ZO 1023,8 20 60 0,0
20.09.2017 09:00:00 9,5 7,3 3,1 16,7 18,0 8 4 14 7 ZO 1024,5 20 60 0,0
20.09.2017 08:00:00 4,6 4,3 0,7 16,8 18,0 4 2 8 4 ZZO 1025,7 19 0 0,0
20.09.2017 07:00:00 4,1 3,7 0,5 16,9 18,0 0 0 3 2 N 1025,8 1,4 0 0,0
20.09.2017 06:00:00 4,9 4,5 1,4 17,0 18,1 0 0 2 1 N 1025,5 8 0 0,0
20.09.2017 05:00:00 6,4 6,1 2,4 17,1 18,1 0 0 5 3 N 1025,7 20 0 0,0
20.09.2017 04:00:00 5,9 5,3 2,8 17,2 18,1 2 1 3 2 WNW 1025,9 14 0 0,0
20.09.2017 03:00:00 7,3 6,7 3,8 17,2 18,1 0 0 3 2 N 1025,9 19 0 0,0
20.09.2017 02:00:00 8,4 6,9 6,0 17,3 18,1 4 2 9 5 ZZO 1026,0 20 0 0,0
20.09.2017 01:00:00 9,9 7,7 9,0 17,3 18,0 2 1 5 3 ZO 1026,2 20 0 0,0
20.09.2017 00:00:00 9,8 8,4 7,9 17,4 18,1 0 0 5 3 N 1026,6 20 0 0,0
19.09.2017 23:00:00 8,4 7,5 6,0 17,4 18,1 2 1 5 3 WZW 1026,9 20 0 0,0
19.09.2017 22:00:00 8,6 6,6 6,4 17,4 18,1 3 2 8 4 ZZW 1026,5 20 0 0,0
19.09.2017 21:00:00 10,4 6,9 7,0 17,4 18,1 3 2 8 5 OZO 1025,6 20 0 0,0
19.09.2017 20:00:00 12,3 7,4 9,2 17,3 18,1 5 3 12 7 W 1024,4 20 22 0,0
19.09.2017 19:00:00 16,9 6,7 18,4 17,2 18,1 10 5 32 17 W 1023,4 20 60 0,0
19.09.2017 18:00:00 17,9 5,8 19,2 17,1 18,1 19 11 34 19 WNW 1023,2 20 54 0,0
19.09.2017 17:00:00 18,1 6,9 18,0 17,1 18,1 18 10 36 19 WNW 1023,1 20 40 0,0
19.09.2017 16:00:00 17,2 6,1 18,6 17,0 18,1 25 13 40 22 W 1023,5 20 45 0,0
19.09.2017 15:00:00 17,9 7,9 17,3 16,9 18,1 16 8 29 16 W 1023,6 20 34 0,0
19.09.2017 14:00:00 17,0 9,4 16,2 16,9 18,1 14 8 35 19 W 1024,3 20 29 0,0
19.09.2017 13:00:00 15,4 7,7 15,6 16,8 18,1 19 10 35 19 NW 1024,7 20 28 0,0
19.09.2017 12:00:00 15,3 8,5 14,9 16,9 18,1 14 7 30 16 WNW 1024,5 20 28 0,0
19.09.2017 11:00:00 13,8 10,0 15,3 16,9 18,1 10 6 16 9 NW 1025,0 20 10 0,0
19.09.2017 10:00:00 12,5 10,0 12,7 17,0 18,1 5 3 9 5 N 1024,9 20 7 0,0
19.09.2017 09:00:00 10,9 9,5 9,8 17,0 18,1 0 0 8 4 N 1025,0 20 10 0,0
19.09.2017 08:00:00 10,4 9,3 9,0 17,1 18,1 0 0 3 2 N 1024,8 20 0 0,0
19.09.2017 07:00:00 10,5 8,6 7,7 17,2 18,2 4 2 9 5 NNW 1024,5 20 0 0,0
19.09.2017 06:00:00 11,0 8,2 9,7 17,2 18,1 4 2 10 5 NW 1024,2 20 0 0,0

tt = temperatuur
td = dauwpunt
tt 5cm = temperatuur 5cm
tt -20cm = temperatuur -20cm
tt -100cm = temperatuur -100cm
ff = windsnelheid
fx = windstoten
dd = windrichting
ppp = luchtdruk
vv = zicht
sd = Zonneschijnduur
rr = neerslag

Weerstations in de omgeving